[[{"header":{"parameterUnit":"m.s-1","parameterCategory":1,"la1":30.2991,"la2":30.254,"lo1":-89.0895,"lo2":-89.0444,"dy":0.0017,"dx":0.0017,"nx":28,"ny":28,"refTime":"2024-05-27T09:00:00:Z","depth":0,"parameterNumber":2,"parameterNumberName":"U-component_of_WINDS"},"data":[0,0,0,0,0,0,0,0,0,0,0,0,0,0,0,0,0,0,0,0,0,0,0,0,0,0,0,0,0,0,0,0,0,0,0,0,0,0,0,0,0,0,0,0,0,0,0,0,0,0,0,0,0,0,0,0,0,0,1.0368,1.0369,0,1.0467,1.0468,1.0469,1.0493,1.0492,1.0492,1.0491,1.0595,1.0599,1.0602,0,0,0,0,0,0,0,0,0,0,0,0,0,1.0203,1.0206,1.0367,1.0369,1.037,1.0466,1.0468,1.0469,1.0493,1.0492,1.0492,1.0491,1.0594,1.0598,1.0602,0,0,0,0,0,0,0,0,0,0,0,0,0,1.0286,1.0207,1.0367,1.0393,1.0397,1.0466,1.0468,1.047,1.0493,1.0492,1.0491,1.0491,1.0593,1.0598,1.0603,1.0654,0,0,1.0618,1.0621,0,0,0,0,0,0,0,0,1.0281,1.0292,1.0388,1.0392,1.0396,1.0466,1.0448,1.0531,1.0494,1.0457,1.0491,1.049,1.0553,1.0562,1.0583,1.0659,1.0663,1.0619,1.0622,1.0624,1.0626,0,0,0,0,0,0,0,1.0275,1.0288,1.0407,1.039,1.0394,1.0402,1.0412,1.0464,1.051,1.046,1.0462,1.0473,1.0555,1.0578,1.0585,1.0665,1.0619,1.0623,1.0626,1.0628,1.0792,1.0793,0,0,0,0,0,0,1.0265,1.0283,1.0404,1.041,1.0335,1.0406,1.0417,1.0445,1.0509,1.0518,1.0474,1.0474,1.0569,1.0579,1.0589,1.0655,1.0624,1.0629,1.0632,1.079,1.0792,1.0793,0,0,0,0,0,0,1.0261,1.0275,1.04,1.0347,1.0363,1.0409,1.044,1.0447,1.047,1.052,1.0528,1.0488,1.0569,1.0582,1.0638,1.0659,1.0631,1.0636,1.0789,1.0791,1.0792,1.0786,0,0,0,0,0,0,1.0256,1.0274,1.0292,1.0347,1.0366,1.0446,1.0441,1.045,1.0478,1.0479,1.0535,1.0544,1.0569,1.063,1.0643,1.0665,1.064,1.0787,1.079,1.0792,1.0784,1.0787,1.079,0,0,0,0,0,1.025,1.0286,1.0293,1.0307,1.039,1.0447,1.0458,1.0486,1.0479,1.0499,1.0532,1.0542,1.0654,1.0636,1.0651,1.0674,1.0786,1.0789,1.0792,1.0783,1.0787,1.079,0,0,0,0,0,0,1.0232,1.0294,1.0302,1.0356,1.0396,1.0451,1.0476,1.0488,1.0531,1.053,1.0564,1.0577,1.0631,1.0659,1.0637,1.0729,1.072,1.0726,1.0709,1.0713,1.0715,1.0708,1.0644,0,0,0,0,0,1.0235,1.0275,1.0327,1.037,1.0389,1.0429,1.0455,1.0474,1.0517,1.0534,1.057,1.0612,1.0658,1.0687,1.0731,1.0789,1.0803,1.0813,1.0815,1.0817,1.0822,1.0858,1.0863,1.0803,1.0803,1.0803,0,0,1.024,1.0279,1.0302,1.0367,1.04,1.0442,1.0443,1.0487,1.0519,1.0541,1.0596,1.0625,1.0675,1.0732,1.076,1.0757,1.0842,1.0821,1.0822,1.0826,1.0861,1.0867,1.0872,1.0805,1.0804,1.0804,0,0,1.0272,1.0304,1.0345,1.0378,1.0428,1.0455,1.0465,1.0519,1.0538,1.0595,1.0612,1.0652,1.0728,1.0764,1.0792,1.084,1.0852,1.0854,1.0868,1.0902,1.0907,1.0911,1.093,1.0937,1.0859,1.0859,1.0859,0,1.0272,1.0335,1.0364,1.0408,1.0438,1.0459,1.0502,1.0533,1.0595,1.0616,1.0612,1.071,1.0745,1.0813,1.0825,1.0846,1.086,1.0848,1.0904,1.0908,1.0913,1.0932,1.0939,1.0859,1.0859,1.0859,1.0859,0,1.0334,1.0378,1.0405,1.0465,1.0498,1.0541,1.0578,1.0608,1.0625,1.0653,1.0712,1.0755,1.0809,1.0826,1.0843,1.0898,1.0895,1.0897,1.0889,1.0918,1.0937,1.0944,1.0859,1.0859,1.0859,1.0859,0,0,1.0355,1.0433,1.0442,1.0471,1.0529,1.0564,1.061,1.0663,1.0689,1.0732,1.0772,1.0838,1.0841,1.0873,1.0894,1.0924,1.0962,1.0923,1.0924,1.093,1.1028,1.1027,1.1034,1.097,1.0972,1.0973,1.1024,0,1.0394,1.0475,1.0504,1.0572,1.0614,1.0637,1.0677,1.0718,1.0746,1.0788,1.0819,1.0866,1.0865,1.0885,1.0916,1.0951,1.0982,1.0947,1.101,1.1012,1.0997,1.1043,1.1042,1.1088,1.1032,1.1033,1.1034,0,1.0451,1.0495,1.0566,1.0622,1.0641,1.0676,1.0729,1.0768,1.0816,1.0835,1.0872,1.0892,1.0942,1.0932,1.1003,1.0979,1.1007,1.1028,1.1031,1.1038,1.1024,1.1053,1.1103,1.1111,1.1045,1.1044,1.1043,0,1.0461,1.0538,1.0592,1.0615,1.0681,1.0706,1.0735,1.0783,1.0814,1.086,1.0881,1.0933,1.0962,1.1003,1.1037,1.1025,1.1106,1.1098,1.1125,1.1124,1.1141,1.1139,1.1197,1.1157,1.1157,1.1157,1.1157,0,1.0502,1.0545,1.0598,1.063,1.0681,1.0715,1.0764,1.0795,1.0837,1.0878,1.0901,1.0939,1.0981,1.1026,1.1053,1.1109,1.1122,1.114,1.1147,1.1138,1.1136,1.1157,1.1155,1.1159,1.1158,1.1158,1.1158,0,1.0521,1.0557,1.0618,1.0676,1.0692,1.0727,1.0778,1.0812,1.0842,1.0893,1.0908,1.0956,1.1009,1.1047,1.1116,1.1135,1.1196,1.1202,1.1179,1.1183,1.1209,1.1206,1.1282,1.1295,1.1245,1.1246,1.1246,0,1.0545,1.0579,1.0642,1.0671,1.07,1.0746,1.0778,1.0814,1.0847,1.0907,1.0934,1.099,1.1036,1.1121,1.1162,1.1216,1.1224,1.1248,1.1233,1.1224,1.1227,1.1225,1.1229,1.125,1.125,1.125,1.1251,0,1.0584,1.0601,1.0647,1.0699,1.0738,1.0781,1.0824,1.0847,1.0892,1.0928,1.0983,1.1019,1.109,1.1146,1.1204,1.1236,1.1252,1.1255,1.1265,1.1257,1.1243,1.1252,1.1187,1.1253,1.1253,1.1253,1.1253,1.1253,1.0607,1.064,1.069,1.0741,1.0778,1.0819,1.0854,1.089,1.0936,1.0997,1.1016,1.1074,1.1125,1.1205,1.1237,1.1284,1.1283,1.1296,1.13,1.1303,1.1303,1.1235,1.1295,1.1295,1.1295,1.1295,1.1295,0,1.0649,1.0683,1.073,1.0791,1.0831,1.0843,1.0892,1.0926,1.0976,1.1022,1.1068,1.1133,1.1187,1.1234,1.1292,1.132,1.1329,1.1334,1.1333,1.1341,1.13,1.1287,1.1326,1.1326,1.1326,1.1326,1.1326,1.1326,1.0676,1.0732,1.0756,1.0832,1.0866,1.0922,1.095,1.0989,1.1026,1.1098,1.1143,1.1174,1.1221,1.1282,1.1334,1.1346,1.1367,1.1371,1.1385,1.1347,1.1343,1.1339,1.1327,1.1374,1.1374,1.1422,1.1422,1.1422]},{"header":{"parameterUnit":"m.s-1","parameterCategory":1,"la1":30.2991,"la2":30.254,"lo1":-89.0895,"lo2":-89.0444,"dy":0.0017,"dx":0.0017,"nx":28,"ny":28,"refTime":"2024-05-27T09:00:00:Z","depth":0,"parameterNumber":3,"parameterNumberName":"V-component_of_WINDS"},"data":[0,0,0,0,0,0,0,0,0,0,0,0,0,0,0,0,0,0,0,0,0,0,0,0,0,0,0,0,0,0,0,0,0,0,0,0,0,0,0,0,0,0,0,0,0,0,0,0,0,0,0,0,0,0,0,0,0,0,5.3669,5.3671,0,5.3771,5.3772,5.3773,5.3764,5.3763,5.3761,5.376,5.3856,5.386,5.3864,0,0,0,0,0,0,0,0,0,0,0,0,0,5.3461,5.3465,5.3669,5.3671,5.3672,5.3771,5.3772,5.3774,5.3765,5.3763,5.3761,5.3759,5.3855,5.386,5.3864,0,0,0,0,0,0,0,0,0,0,0,0,0,5.3556,5.3467,5.3669,5.368,5.3682,5.3771,5.3772,5.3774,5.3765,5.3763,5.3761,5.3758,5.3853,5.3859,5.3865,5.3948,0,0,5.3883,5.3886,0,0,0,0,0,0,0,0,5.3551,5.3564,5.3677,5.3679,5.3681,5.3753,5.3734,5.3832,5.3766,5.3733,5.376,5.3757,5.3823,5.3831,5.3855,5.3952,5.3956,5.3884,5.3887,5.389,5.3892,0,0,0,0,0,0,0,5.3544,5.3559,5.3709,5.3678,5.3681,5.3677,5.3688,5.3753,5.3789,5.3736,5.3735,5.3748,5.3824,5.385,5.3857,5.3958,5.3884,5.3889,5.3893,5.3895,5.413,5.4132,0,0,0,0,0,0,5.3536,5.3554,5.3706,5.3712,5.3609,5.3683,5.3695,5.3732,5.3789,5.3795,5.375,5.3747,5.384,5.385,5.3861,5.3963,5.389,5.3896,5.3899,5.4127,5.413,5.4133,0,0,0,0,0,0,5.3532,5.355,5.3702,5.3633,5.3652,5.3689,5.3731,5.3735,5.3761,5.38,5.3805,5.377,5.3839,5.3852,5.3927,5.3966,5.3898,5.3904,5.4124,5.4128,5.4132,5.4167,0,0,0,0,0,0,5.3526,5.3548,5.3581,5.3634,5.3656,5.3769,5.3733,5.3739,5.3772,5.377,5.382,5.3826,5.3838,5.3918,5.3933,5.3973,5.3908,5.4121,5.4126,5.413,5.4163,5.4172,5.418,0,0,0,0,0,5.3518,5.3585,5.3583,5.3601,5.3699,5.3771,5.3783,5.3798,5.3775,5.3808,5.3833,5.3824,5.396,5.3926,5.3943,5.3985,5.4118,5.4124,5.413,5.4159,5.417,5.418,0,0,0,0,0,0,5.3532,5.3592,5.359,5.3677,5.3719,5.3769,5.3811,5.3809,5.3857,5.3852,5.3867,5.3878,5.3954,5.3977,5.3938,5.4069,5.4036,5.4045,5.4052,5.4063,5.4071,5.4064,5.3913,0,0,0,0,0,5.3546,5.3602,5.365,5.3721,5.3743,5.3774,5.3806,5.3814,5.3858,5.3875,5.3905,5.3946,5.3998,5.4031,5.4081,5.4166,5.4177,5.4203,5.4212,5.4219,5.4227,5.4275,5.4288,5.4153,5.4153,5.4153,0,0,5.3573,5.3613,5.3647,5.3725,5.3759,5.3816,5.3789,5.3848,5.389,5.3883,5.3957,5.3981,5.4027,5.4108,5.4145,5.4129,5.4267,5.4227,5.4232,5.4236,5.4283,5.4296,5.4307,5.4157,5.4156,5.4155,0,0,5.3653,5.3688,5.3753,5.3789,5.3842,5.3862,5.3878,5.3929,5.3946,5.4021,5.4018,5.4066,5.4155,5.4189,5.4218,5.4313,5.4307,5.4329,5.4373,5.442,5.4431,5.4441,5.4476,5.4488,5.4337,5.4337,5.4337,0,5.368,5.3767,5.3785,5.3848,5.3883,5.3882,5.3947,5.398,5.4045,5.4068,5.405,5.4164,5.4195,5.4285,5.4309,5.4332,5.435,5.4323,5.4429,5.4438,5.4447,5.4481,5.4494,5.4339,5.4339,5.4339,5.4338,0,5.3798,5.3859,5.3904,5.3972,5.4011,5.4074,5.4101,5.4138,5.4144,5.4166,5.4243,5.428,5.4339,5.4361,5.4365,5.4452,5.4441,5.4426,5.4392,5.4463,5.4495,5.4508,5.4343,5.4342,5.4341,5.434,0,0,5.3887,5.3968,5.3984,5.4016,5.4076,5.4122,5.4185,5.4245,5.4278,5.4323,5.4376,5.4453,5.444,5.4473,5.4481,5.4523,5.4598,5.4502,5.4504,5.452,5.4698,5.471,5.4725,5.4594,5.4597,5.4599,5.4694,0,5.3974,5.4089,5.4109,5.4209,5.4266,5.4267,5.4322,5.4364,5.4387,5.4436,5.446,5.4515,5.4493,5.4513,5.4554,5.458,5.4634,5.4573,5.4643,5.4645,5.4633,5.4741,5.4753,5.4842,5.4707,5.4709,5.4711,0,5.409,5.4143,5.425,5.4305,5.433,5.4379,5.4438,5.4485,5.4533,5.4546,5.4585,5.4589,5.4654,5.4618,5.4707,5.4665,5.4695,5.4712,5.4716,5.4723,5.4683,5.4752,5.487,5.4884,5.473,5.4729,5.4727,0,5.4147,5.4244,5.4322,5.4348,5.4414,5.4449,5.4478,5.4523,5.4559,5.4609,5.4633,5.4688,5.4719,5.4761,5.478,5.4752,5.4869,5.4834,5.4881,5.4881,5.4906,5.4904,5.5031,5.4924,5.4923,5.4923,5.4923,0,5.4242,5.4307,5.4349,5.4396,5.447,5.4491,5.4563,5.459,5.4631,5.4683,5.4686,5.4734,5.4756,5.4807,5.4822,5.4895,5.4907,5.492,5.4923,5.492,5.4919,5.494,5.4935,5.4927,5.4926,5.4925,5.4925,0,5.4317,5.4348,5.4432,5.4489,5.4505,5.4557,5.4604,5.465,5.4673,5.4739,5.4755,5.4791,5.4852,5.4875,5.4948,5.4958,5.5042,5.504,5.5027,5.5029,5.5075,5.5071,5.5221,5.5242,5.512,5.5121,5.5122,0,5.4376,5.4428,5.4492,5.4529,5.4559,5.4618,5.4656,5.4679,5.4718,5.4778,5.4816,5.4877,5.4928,5.5025,5.5056,5.5112,5.5112,5.516,5.512,5.5116,5.5114,5.5111,5.5117,5.5168,5.5169,5.517,5.5171,0,5.4479,5.4492,5.4549,5.4611,5.4657,5.4706,5.4754,5.4783,5.4813,5.4857,5.4921,5.4961,5.5038,5.5098,5.5157,5.5184,5.5183,5.5184,5.5198,5.5196,5.5187,5.5194,5.5049,5.518,5.5179,5.5178,5.5178,5.5177,5.4549,5.4596,5.4649,5.4712,5.4751,5.4797,5.4844,5.4874,5.4929,5.4996,5.5005,5.5074,5.5122,5.5201,5.5231,5.5284,5.5271,5.5291,5.5296,5.5301,5.5306,5.5178,5.5295,5.5294,5.5294,5.5294,5.5294,0,5.4653,5.4688,5.4746,5.4815,5.4865,5.4863,5.4916,5.4957,5.5019,5.5064,5.5116,5.519,5.525,5.5287,5.5347,5.5383,5.5384,5.5398,5.5395,5.5402,5.5313,5.5296,5.5396,5.5396,5.5396,5.5396,5.5396,5.5396,5.4713,5.4793,5.4813,5.4912,5.4946,5.5016,5.5047,5.5089,5.5126,5.521,5.5262,5.5286,5.5329,5.5393,5.5447,5.5457,5.5479,5.5494,5.5503,5.5419,5.5408,5.5398,5.5382,5.5499,5.5499,5.5588,5.5588,5.5589]}]]